Погода в Тулуне

Погода в Тулуне : погода сейчас, прогноз погоды и архив. Всё, что Вы хотите узнать о погоде в Тулуне!

Хотите узнать прогноз погоды в Тулуне? Тогда Вам сюда: Погода в Тулуне

Поиск расширенной информации на нашем сайте:

Другие новости

Новости СМИ2

Главная страница сайта

Новости сайта

03.07.2017

Напоминаем, что на нашем специализированном сайте Метеоцентр.Азия вы можете получить высокодетализированные автоматические прогнозы погоды по пунктам России, СНГ и мира в авиационном формате (включающие направление и скорость ветра, видимость, явления погоды, количество и форму облачности, нижнюю и верхнюю границу облачности).


Погода в Тулуне - сегодня

Время (UTC), дата Ветер
(°,м/с) 
Видим.   Явления Облачность Т
(°С)
Тd
(°С)
f(%) Тe
(°С)
Pmin
(гПа)
dP
(гПа)
Po
(мм)
O2
(г/м3)
Тmin Tmax R s Состояние
почвы
21 15.10.17 160 (Ю) н/о    1/0 верхняя 
[Ci sp]
-3 -9.2 62 -5  1023.5  -1.5  719  294           
00 16.10.17 140 (ЮВ) 20000 м    8/0 верхняя 
[Ci fib]
-3.9 -9.7 64 -6  1023.5  -0.2  719  295  -3.9         
03 16.10.17 150 (ЮВ) 20000 м    8/0 верхняя 
[Ci sp]
-0.3 -8.8 53 -3  1022.6  719  291  -3.9         
06 16.10.17 140 (ЮВ) 20000 м    9/0 верхняя 
[Ci sp]
+6.8 -8 34 +7  1019.8  -1.1  718  283           
09 16.10.17 110 (В) 20000 м    9/4 600 м кучево-дожд., средняя, верхняя 
[Cb calv|Ac trans|Ci sp]
+7.6 -7.3 34 +8  1018.6  -0.8  717  282           
12 16.10.17 140 (ЮВ) н/о    9/3 600 м кучево-дожд., средняя 
[Cb calv|Ac trans]
+6 -7.5 37 +5  1018.7  -0.3  717  283    +8.9       
15 16.10.17 160 (Ю) н/о    9/0 средняя 
[Ac trans]
+4.6 -6.8 43 +4  1018.4  -0.6  717  285           
18 16.10.17 150 (ЮВ) н/о    8/0 средняя 
[Ac trans]
+3.8 -5.8 49 +3  1017.5  -1  716  285           
21 16.10.17 тихо ()   н/о    9/0 средняя, верхняя 
[Ac trans|Ci sp]
+1 -4.6 66 +1  1019.1  0.9  717  288           
00 17.10.17 350 (С) 20000 м  в посл. час ливневой дождь  9/5 600 м кучево-дожд., средняя 
[Cb calv|Ac trans]
+3.3 +0.2 80 +4  1020  1.4  718  286  +0.5    0.0     
03 17.10.17 280 (З) 20000 м    8/3 600 м кучево-дожд., средняя, верхняя 
[Cb calv|Ac trans|Ci sp]
+7.2 +2 69 +7  1020.4  1.2  719  282           
06 17.10.17 290 (З) 20000 м    9/6 600 м кучево-дожд., средняя 
[Cb calv|Ac trans]
+7.8 +0.6 60 +7  1021.1  0.8  719  282           
09 17.10.17 300 (СЗ) 3{10}  20000 м    8/4 600 м кучево-дожд., средняя, верхняя 
[Cb calv|Ac trans|Ci sp]
+7.6 -0.7 56 +7  1022.3  1.1  720  282           
12 17.10.17 240 (ЮЗ) н/о    8/4 600 м кучево-дожд., средняя, верхняя 
[Cb calv|Ac trans|Ci sp]
+4.1 -0.3 73 +5  1025.1  1.8  721  286    +8.9       
15 17.10.17 тихо ()   н/о    9/0 средняя, верхняя 
[Ac trans|Ci sp]
+1.2 -1.5 82 +1  1026.7  0.9  722  290           
18 17.10.17 260 (З) н/о  в посл. час ливневой дождь  9/5 600 м кучево-дожд., средняя 
[Cb calv|Ac trans]
+1.7 -0.3 87 +2  1026.8  0.2  722  289           
21 17.10.17 тихо ()   н/о  в посл. час ливневой дождь  9/6 600 м кучево-дожд., средняя, верхняя 
[Cb calv|Ac trans|Ci sp]
+1.6 +0.2 90 +2  1026.7  -0.1  722  289           
00 18.10.17 050 (СВ) 20000 м  {ливн. осадки}  10/5 600 м кучево-дожд., средняя 
[Cb calv|Ac As]
+1.1 -0.1 92 +2  1026.9  722  290  +1.1    0.3     
03 18.10.17 050 (СВ) 20000 м    10/8 600 м кучево-дожд., средняя 
[Cb calv|Ac und]
+2.1 +0.3 88 +3  1026.7  0.1  722  289  +1         
06 18.10.17 160 (Ю) 20000 м    10/8 600 м кучево-дожд., средняя 
[Cb calv|Ac As]
+4.4 -0.7 69 +5  1024.4  -1.7  721  286           
09 18.10.17 090 (В) 20000 м    9/8 600 м кучево-дожд., средняя 
[Cb calv|Ac trans]
+4.8 -0.7 68 +6  1022.6  -1.6  720  285           
12 18.10.17 060 (СВ) н/о    10/6 600 м кучево-дожд., средняя 
[Cb calv|Ac As]
+3.3 -0.8 74 +4  1022.1  -0.7  719  286    +5.5       
15 18.10.17 050 (СВ) н/о    10/4 600 м кучево-дожд., средняя 
[Cb calv|Ac As]
+2.6 -0.7 79 +2  1021.3  -1  718  287           
18 18.10.17 060 (СВ) н/о    10/5 600 м кучево-дожд., средняя 
[Cb calv|Ac As]
+2.2 -1.5 76 +2  1020.1  -1.2  717  287           
21 18.10.17 040 (СВ) н/о    10/6 600 м кучево-дожд., средняя 
[Cb calv|Ac As]
+1.5 -2.1 77 1019.7  -0.5  717  288           
Время (UTC), дата Ветер
(°,м/с) 
Видим.   Явления Облачность Т
(°С)
Тd
(°С)
f(%) Тe
(°С)
Pmin
(гПа)
dP
(гПа)
Po
(мм)
O2
(г/м3)
Тmin Tmax R s Состояние
почвы

Для получения пояснительной информации подведите курсор к названию столбца.

ПОГОДА в Тулуне - архив

Всё, что Вы хотите узнать о погоде в Тулуне - удобно и подробно!

Выберите нужную дату (начиная с 1 января 2015* года) и нажмите кнопку "Найти".
Будут отображены архивные сводки погоды по пункту Тулун, начиная с указанной даты.


Отображать данные в формате CSV (для использования в таблицах Excel)


Внимание! Наш архив погоды предназначен исключительно для личного некоммерческого использования в познавательных целях. Если Вам необходимы официальные справки о состоянии погоды (для производственных, юридических, коммерческих и т.п. целей), обращайтесь в органы Росгидромета.

*Примечание: данная дата относится к архиву по метеостанциям СССР (Россия, СНГ, Балтия).
Архив по метеостанциям Зарубежной Европы и Азии (кроме Китая) хранится 10 дней, по другим регионам земного шара (Китай, Африка, Америка, Австралия, Океания) - 1 день.

Тулун - район местоположения метеостанции


Название, широта, долгота, высота метеостанции:
Тулун 54.6°ш. 100.6°д. 522 м над ур. моря [Российская Федерация]

Дополнительная информация

В oтличие oт бoльшинства пoгoдных сайтoв мы публикуем пoдрoбную метеoинфoрмацию в детальнoм прoфессиoнальнoм фoрмате.

Характеристики температуры и влажнoсти вoздуха измеряются на высoте 2 м в тени вдали oт зданий и деревьев.
Скoрoсть ветра измеряется на высoте 10 м (на урoвне рoста челoвека скoрoсть ветра ниже в 1.5-2 раза). Если метеoстанция нахoдится в гoрoде или в лесу, тo скoрoсть ветра занижена на 2-4 м/с пo сравнению с oткрытым местoм. Скoрoсть ветра над акватoриями крупных рек и oзёр, а также на вершинах хoлмoв на 2-5 м/с выше, чем в oбычных услoвиях.
Атмoсфернoе давление в разных тoчках местнoсти мoжет значительнo oтличаться oт давления на метеoстанции, в зависимoсти oт услoвий рельефа (при пoдъёме на 10 м давление пoнижается примернo на 1 мм рт.ст.).